Flag for Germany Weather past 2 weeks in Stade, Lower Saxony, Germany

Now
68 °F

Passing clouds.


Feels Like: 68 °F
Forecast: 49 / 61 °F
Wind: 10 mph from Southeast

Location: Hamburg-Finkenwerder

Current Time: May 5, 2015 at 10:21:52 AM

Latest Report: May 5, 2015 at 9:50 AM


Visibility: N/A

Pressure: 29.47 "Hg

Humidity: 78%

Dew point: 61 °F

Location of StadeLocation

Historic Weather in Stade — Graph

°F

Stade temperature yesterday

Maximum temperature yesterday: 66 °F (at 3:20 PM)
Minimum temperature yesterday: 54 °F (at 5:50 AM)
Average temperature yesterday: 61 °F

Past Weeks' High & Low Weather Summary

 TemperatureHumidityPressure
High66 °F (Apr 20, 4:50 PM)100% (Apr 21, 6:20 AM)30.36 "Hg (Apr 21, 6:20 AM)
Low32 °F (Apr 28, 6:20 AM)30% (Apr 20, 4:50 PM)29.47 "Hg (May 5, 6:50 AM)
Average53 °F70%29.99 "Hg
* Reported Apr 20 9:20 AM — May 5 9:20 AM, Stade, Weather by CustomWeather, © 2015

Note: Actual official high and low records may vary slightly from our data, if they occured in-between our weather recording intervals... More about our weather records

Advertising

Stade weather history for previous 24 hours

 ConditionsComfort  
Time TempWeatherWind HumidityBarometerVisibility
9:20 AM
Tue, May 5
64 °FPassing clouds.9 mph88%29.47 "HgN/A
8:50 AM63 °FPassing clouds.10 mph88%29.47 "HgN/A
8:20 AM59 °FPassing clouds.9 mph94%29.47 "HgN/A
7:50 AM59 °FPassing clouds.13 mph94%29.47 "HgN/A
7:20 AM57 °FPassing clouds.10 mph100%29.47 "HgN/A
6:50 AM57 °FPartly sunny.9 mph100%29.47 "HgN/A
6:20 AM57 °FLight rain. Partly cloudy.8 mph100%29.50 "HgN/A
5:50 AM57 °FLight rain. Overcast.9 mph100%29.50 "HgN/A
7:20 PM
Mon, May 4
64 °FSunny.7 mph60%29.77 "Hg10 mi
6:50 PM66 °FScattered clouds.6 mph56%29.77 "HgN/A
6:20 PM66 °FScattered clouds.8 mph56%29.77 "HgN/A
5:50 PM66 °FPassing clouds.9 mph56%29.77 "HgN/A
5:20 PM66 °FPassing clouds.12 mph56%29.77 "HgN/A
4:50 PM66 °FScattered clouds.12 mph56%29.77 "HgN/A
4:20 PM66 °FScattered clouds.14 mph56%29.77 "HgN/A
3:50 PM66 °FScattered clouds.15 mph56%29.77 "HgN/A
3:20 PM66 °FScattered clouds.14 mph60%29.77 "HgN/A
2:50 PM64 °FBroken clouds.15 mph64%29.77 "HgN/A
2:20 PM64 °FPartly sunny.18 mph68%29.77 "HgN/A
1:50 PM64 °FScattered clouds.18 mph64%29.77 "HgN/A
1:20 PM63 °FBroken clouds.18 mph68%29.77 "HgN/A
12:50 PM63 °FBroken clouds.16 mph73%29.74 "HgN/A
12:20 PM61 °FPartly sunny.18 mph68%29.74 "HgN/A
11:50 AM61 °FBroken clouds.16 mph72%29.74 "HgN/A
11:20 AM61 °FPartly sunny.16 mph72%29.74 "HgN/A
10:50 AM61 °FPartly sunny.17 mph77%29.71 "HgN/A
10:20 AM59 °FPartly sunny.17 mph82%29.71 "HgN/A
Weather by CustomWeather, © 2015

See weather overviewHow to use our weather pages